TimeMST,TemperatureF,Dew PointF,Humidity,Sea Level PressureIn,VisibilityMPH,Wind Direction,Wind SpeedMPH,Gust SpeedMPH,PrecipitationIn,Events,Conditions,WindDirDegrees,DateUTC
12:15 AM,28.4,15.8,59,29.97,10.0,SW,10.4,-,N/A,,Clear,220,2011-11-06 06:15:00
12:35 AM,28.4,15.8,59,29.97,10.0,SW,11.5,-,N/A,,Clear,220,2011-11-06 06:35:00
12:55 AM,26.6,15.8,64,29.97,10.0,SSW,9.2,-,N/A,,Clear,200,2011-11-06 06:55:00
1:15 AM,26.6,15.8,64,29.97,10.0,SSW,6.9,-,N/A,,Clear,200,2011-11-06 07:15:00
1:35 AM,26.6,15.8,64,29.98,10.0,SSW,8.1,-,N/A,,Scattered Clouds,200,2011-11-06 07:35:00
1:55 AM,26.6,15.8,64,29.99,10.0,South,6.9,-,N/A,,Partly Cloudy,170,2011-11-06 07:55:00
1:15 AM,26.6,15.8,64,29.99,10.0,SSE,6.9,-,N/A,,Clear,160,2011-11-06 08:15:00
1:35 AM,26.6,15.8,64,29.99,10.0,South,5.8,-,N/A,,Clear,170,2011-11-06 08:35:00
1:55 AM,24.8,15.8,69,30.00,10.0,SSE,5.8,-,N/A,,Clear,160,2011-11-06 08:55:00
2:15 AM,24.8,15.8,69,30.00,10.0,SSE,8.1,-,N/A,,Partly Cloudy,150,2011-11-06 09:15:00
2:35 AM,26.6,15.8,64,29.99,10.0,SSE,8.1,-,N/A,,Scattered Clouds,160,2011-11-06 09:35:00
2:55 AM,26.6,15.8,64,29.99,10.0,ESE,5.8,-,N/A,,Clear,120,2011-11-06 09:55:00
3:15 AM,24.8,15.8,69,29.99,10.0,SE,8.1,-,N/A,,Scattered Clouds,140,2011-11-06 10:15:00
3:35 AM,23.0,15.8,74,30.00,10.0,SE,5.8,-,N/A,,Mostly Cloudy,130,2011-11-06 10:35:00
3:55 AM,21.2,15.8,80,30.00,10.0,SE,6.9,-,N/A,,Partly Cloudy,130,2011-11-06 10:55:00
4:15 AM,21.2,14.0,74,30.00,10.0,SE,8.1,-,N/A,,Clear,130,2011-11-06 11:15:00
4:35 AM,21.2,15.8,80,30.01,10.0,SE,8.1,-,N/A,,Clear,130,2011-11-06 11:35:00
4:55 AM,21.2,15.8,80,30.00,10.0,ESE,8.1,-,N/A,,Clear,110,2011-11-06 11:55:00
5:15 AM,21.2,14.0,74,30.00,10.0,ESE,5.8,-,N/A,,Clear,120,2011-11-06 12:15:00
5:35 AM,21.2,14.0,74,30.00,10.0,East,6.9,-,N/A,,Clear,100,2011-11-06 12:35:00
5:55 AM,21.2,14.0,74,30.01,10.0,East,3.5,-,N/A,,Clear,100,2011-11-06 12:55:00
6:15 AM,21.2,14.0,74,30.01,10.0,SE,3.5,-,N/A,,Clear,130,2011-11-06 13:15:00
6:35 AM,21.2,14.0,74,30.02,10.0,ESE,3.5,-,N/A,,Clear,110,2011-11-06 13:35:00
6:55 AM,19.4,14.0,80,30.03,10.0,East,3.5,-,N/A,,Clear,90,2011-11-06 13:55:00
7:15 AM,21.2,15.8,80,30.04,10.0,SE,3.5,-,N/A,,Clear,130,2011-11-06 14:15:00
7:35 AM,24.8,17.6,74,30.05,10.0,SE,4.6,-,N/A,,Clear,130,2011-11-06 14:35:00
7:55 AM,26.6,17.6,69,30.06,10.0,SE,5.8,-,N/A,,Clear,140,2011-11-06 14:55:00
8:15 AM,28.4,17.6,64,30.06,10.0,SE,4.6,-,N/A,,Clear,140,2011-11-06 15:15:00
8:35 AM,30.2,17.6,60,30.07,10.0,ESE,3.5,-,N/A,,Clear,120,2011-11-06 15:35:00
9:15 AM,32.0,19.4,60,30.07,10.0,SE,3.5,-,N/A,,Clear,130,2011-11-06 16:15:00
9:35 AM,33.8,19.4,56,30.07,10.0,South,4.6,-,N/A,,Clear,190,2011-11-06 16:35:00
9:55 AM,33.8,19.4,56,30.07,10.0,Calm,Calm,-,N/A,,Clear,0,2011-11-06 16:55:00
10:15 AM,35.6,19.4,52,30.07,10.0,West,4.6,-,N/A,,Clear,280,2011-11-06 17:15:00
10:35 AM,35.6,19.4,52,30.07,10.0,WSW,5.8,-,N/A,,Clear,250,2011-11-06 17:35:00
10:55 AM,37.4,19.4,48,30.07,10.0,SSW,6.9,-,N/A,,Clear,200,2011-11-06 17:55:00
11:15 AM,37.4,19.4,48,30.06,10.0,South,5.8,-,N/A,,Clear,190,2011-11-06 18:15:00
11:35 AM,37.4,19.4,48,30.05,10.0,WSW,4.6,-,N/A,,Clear,250,2011-11-06 18:35:00
11:55 AM,39.2,19.4,45,30.04,10.0,SW,8.1,-,N/A,,Clear,230,2011-11-06 18:55:00
12:15 PM,39.2,17.6,42,30.03,10.0,WSW,5.8,-,N/A,,Clear,240,2011-11-06 19:15:00
12:35 PM,41.0,15.8,36,30.02,10.0,SW,6.9,-,N/A,,Clear,220,2011-11-06 19:35:00
12:55 PM,41.0,15.8,36,30.01,10.0,WSW,10.4,-,N/A,,Clear,250,2011-11-06 19:55:00
1:15 PM,42.8,17.6,36,30.00,10.0,SW,8.1,-,N/A,,Clear,230,2011-11-06 20:15:00
1:35 PM,42.8,17.6,36,30.00,10.0,WSW,5.8,-,N/A,,Clear,250,2011-11-06 20:35:00
1:55 PM,42.8,17.6,36,29.99,10.0,West,8.1,-,N/A,,Clear,260,2011-11-06 20:55:00
2:15 PM,42.8,17.6,36,29.99,10.0,WSW,11.5,-,N/A,,Clear,240,2011-11-06 21:15:00
2:35 PM,42.8,15.8,34,29.99,10.0,WSW,10.4,-,N/A,,Clear,240,2011-11-06 21:35:00
2:55 PM,44.6,17.6,34,30.00,10.0,West,10.4,-,N/A,,Clear,280,2011-11-06 21:55:00
3:15 PM,44.6,17.6,34,30.00,10.0,WNW,10.4,-,N/A,,Clear,290,2011-11-06 22:15:00
3:35 PM,44.6,17.6,34,30.01,10.0,WSW,9.2,-,N/A,,Clear,240,2011-11-06 22:35:00
3:55 PM,42.8,17.6,36,30.01,10.0,WSW,10.4,-,N/A,,Clear,250,2011-11-06 22:55:00
4:15 PM,41.0,15.8,36,30.01,10.0,WSW,8.1,-,N/A,,Clear,240,2011-11-06 23:15:00
4:35 PM,39.2,17.6,42,30.02,10.0,West,6.9,-,N/A,,Clear,260,2011-11-06 23:35:00
4:55 PM,37.4,17.6,45,30.02,10.0,West,5.8,-,N/A,,Clear,270,2011-11-06 23:55:00
5:15 PM,33.8,17.6,52,30.02,10.0,West,3.5,-,N/A,,Clear,270,2011-11-07 00:15:00
5:35 PM,33.8,17.6,52,30.03,10.0,Calm,Calm,-,N/A,,Clear,0,2011-11-07 00:35:00
5:55 PM,35.6,17.6,48,30.04,10.0,Calm,Calm,-,N/A,,Clear,0,2011-11-07 00:55:00
6:15 PM,35.6,17.6,48,30.05,10.0,NW,3.5,-,N/A,,Clear,320,2011-11-07 01:15:00
6:35 PM,30.2,15.8,55,30.05,10.0,NW,3.5,-,N/A,,Clear,320,2011-11-07 01:35:00
6:55 PM,33.8,17.6,52,30.05,10.0,Calm,Calm,-,N/A,,Clear,0,2011-11-07 01:55:00
7:15 PM,28.4,17.6,64,30.06,10.0,SSE,6.9,-,N/A,,Clear,160,2011-11-07 02:15:00
7:35 PM,26.6,17.6,69,30.06,10.0,East,5.8,-,N/A,,Clear,80,2011-11-07 02:35:00
7:55 PM,26.6,19.4,74,30.06,10.0,East,4.6,-,N/A,,Clear,90,2011-11-07 02:55:00
8:15 PM,26.6,19.4,74,30.07,10.0,East,6.9,-,N/A,,Clear,90,2011-11-07 03:15:00
8:35 PM,26.6,19.4,74,30.07,10.0,East,8.1,-,N/A,,Clear,80,2011-11-07 03:35:00
8:55 PM,28.4,19.4,69,30.06,10.0,ENE,8.1,-,N/A,,Clear,70,2011-11-07 03:55:00
9:15 PM,28.4,19.4,69,30.07,10.0,ENE,5.8,-,N/A,,Clear,70,2011-11-07 04:15:00
9:35 PM,23.0,17.6,80,30.08,10.0,NW,4.6,-,N/A,,Clear,320,2011-11-07 04:35:00
9:55 PM,23.0,17.6,80,30.08,10.0,Calm,Calm,-,N/A,,Partly Cloudy,0,2011-11-07 04:55:00
10:15 PM,26.6,17.6,69,30.07,10.0,Calm,Calm,-,N/A,,Clear,0,2011-11-07 05:15:00
10:35 PM,24.8,19.4,80,30.06,10.0,NE,6.9,-,N/A,,Scattered Clouds,40,2011-11-07 05:35:00
10:55 PM,28.4,19.4,69,30.06,10.0,Calm,Calm,-,N/A,,Mostly Cloudy,0,2011-11-07 05:55:00